Temp
19 19 19 19 19 19 19 19 18 18 18 18 17 17 17 17 17 17 16 16 15 15 15 15 15 15 15 15 15 14 15 15 15 15 15 15 14 14 14 15 15 15
19 19 19 19 19 19 19 19 18 18 18 18 18 17 17 17 17 16 16 16 16 15 15 15 15 15 15 15 15 14 14 15 15 15 15 14 14 14 14 14 15 15
17 18 19 19 19 19 19 19 18 18 18 18 18 17 17 17 16 16 16 16 16 15 15 15 15 15 15 15 14 14 14 14 14 14 14 14 14 14 14 14 14 14
16 17 18 19 19 19 19 18 18 18 18 18 17 17 17 16 16 16 16 16 16 15 15 15 15 15 15 15 14 14 14 14 14 14 14 14 13 14 14 14 14 14
16 17 18 18 19 19 18 18 18 18 18 17 17 17 16 16 16 16 16 16 16 15 15 15 15 15 14 14 14 14 14 14 14 14 13 13 14 14 14 14 14 13
16 17 17 18 18 18 18 18 18 17 17 17 17 16 16 16 16 16 16 16 15 15 15 15 15 15 14 14 14 14 14 13 13 13 13 13 14 13 13 13 13 13
15 16 17 17 18 18 18 17 17 17 17 17 16 16 16 16 16 16 16 16 16 15 15 15 15 15 14 14 14 14 13 13 13 13 13 13 13 13 13 13 13 13
15 15 16 17 17 18 17 17 17 17 17 17 16 16 16 16 16 16 16 16 16 16 16 15 15 15 15 14 14 13 13 13 13 13 13 13 13 13 13 13 13 13
14 15 16 16 16 17 17 17 17 17 17 17 16 16 16 16 16 16 16 16 16 16 16 16 15 15 15 14 14 13 13 13 13 13 12 12 13 13 13 13 13 13
14 14 14 15 15 15 16 16 17 17 17 16 16 16 16 16 16 16 16 16 16 16 16 16 15 15 14 14 14 13 13 13 13 13 12 12 12 12 12 12 12 12
14 14 14 15 15 15 15 15 16 16 17 16 16 16 16 16 16 17 16 16 16 16 16 16 15 15 14 14 14 13 13 13 12 12 12 12 12 12 12 12 12 12
14 14 15 15 15 15 14 14 15 15 16 16 16 16 16 16 16 17 17 16 16 16 16 16 15 15 14 14 14 13 13 13 12 12 12 12 11 11 12 12 12 11
14 14 15 15 15 15 15 15 14 14 15 15 16 16 16 16 16 16 17 16 16 16 16 16 15 15 14 14 13 13 13 13 12 12 12 11 11 11 11 11 11 11
13 14 14 15 15 15 15 15 14 14 14 14 15 15 15 15 15 15 16 16 16 16 16 15 15 14 14 13 13 13 13 12 12 12 11 11 11 11 11 11 11 11
13 13 13 14 14 14 14 14 14 14 14 14 14 14 14 14 15 15 15 16 16 16 15 15 14 14 14 13 13 13 12 12 12 11 11 11 11 11 11 11 11 11
13 13 13 13 13 13 13 13 13 13 13 13 14 14 14 14 14 15 15 15 15 15 15 14 14 14 13 13 13 12 12 11 11 11 11 11 11 11 11 10 10 10
13 13 13 12 12 12 12 12 13 13 13 13 14 14 14 14 14 14 15 15 15 15 15 14 14 13 13 13 12 12 12 11 11 10 10 10 10 10 10 10 10 10
13 13 13 12 12 12 12 12 12 13 13 14 14 14 14 14 14 14 14 14 14 14 14 14 13 13 13 12 12 11 11 11 10 10 9 10 10 10 10 10 10 9
14 13 13 13 12 12 12 12 12 12 13 13 13 13 13 13 13 13 13 13 13 14 14 14 13 13 12 12 11 11 11 11 10 9 9 10 10 10 10 10 9 8
14 14 13 13 13 13 13 12 12 12 13 13 13 13 13 12 12 12 12 13 13 13 13 13 13 13 12 12 11 11 11 11 10 9 9 9 10 10 10 9 8 8
14 13 13 13 13 13 13 12 12 12 12 12 12 12 12 12 12 12 12 12 13 13 13 13 13 12 12 11 11 11 11 10 10 9 9 9 9 9 9 8 8 7
14 14 13 13 13 13 13 12 12 12 12 12 12 12 12 12 12 12 12 12 12 13 13 13 12 12 12 11 11 11 11 10 10 9 9 9 9 9 9 8 8 7
14 14 14 13 13 13 13 12 12 12 12 12 12 11 11 12 12 12 12 12 12 12 12 12 12 11 11 11 11 11 10 10 10 9 9 9 10 10 9 9 8 8
14 14 13 13 13 13 13 13 13 12 12 12 12 11 11 11 11 11 11 11 11 12 12 12 12 11 11 11 11 11 10 10 10 9 9 10 11 10 10 9 9 9
15 14 14 14 13 12 13 13 13 12 12 12 11 11 11 11 11 11 11 11 11 11 12 12 12 11 11 11 11 10 10 10 10 9 9 10 11 11 10 9 9 9
15 15 15 14 14 13 12 13 13 13 12 12 11 11 11 11 11 11 11 11 11 12 12 12 12 11 11 11 10 10 10 10 10 9 9 10 11 11 11 10 10 9
Height
800 801 801 801 801 801 801 801 801 802 803 803 804 805 805 805 806 806 807 807 808 809 809 810 811 812 813 813 813 813 813 814 814 815 815 816 816 815 815 815 815 814
802 802 802 802 801 801 801 801 801 801 802 802 803 804 804 805 806 806 807 808 808 809 809 810 811 811 812 813 813 813 813 813 814 814 815 815 815 815 815 815 814 814
803 803 803 803 802 801 800 801 801 801 801 801 802 802 803 804 806 806 807 808 808 809 809 809 810 811 812 812 812 813 813 813 813 814 814 814 815 815 815 815 814 814
799 801 802 803 802 801 801 800 801 800 800 800 800 801 802 803 805 806 807 807 808 808 809 809 810 811 811 811 811 812 812 812 813 813 813 814 814 814 814 814 814 814
794 796 798 801 801 801 800 800 800 800 800 800 800 800 800 802 804 805 806 807 807 808 809 809 810 810 811 811 811 811 811 812 812 812 812 813 813 813 813 814 814 814
792 792 792 796 798 799 799 799 800 800 799 799 799 799 800 801 802 804 805 806 807 808 808 809 809 810 810 811 811 811 811 811 811 812 812 812 812 812 812 813 813 813
791 791 791 794 796 796 797 798 799 799 799 799 799 799 799 800 801 803 804 805 807 807 808 808 809 809 810 810 810 810 810 811 811 811 812 812 812 812 812 812 812 812
791 792 792 792 794 795 796 798 799 799 799 799 799 799 799 799 800 802 803 804 805 806 807 808 809 809 809 809 809 810 810 810 811 811 811 811 811 811 811 811 811 811
790 791 790 791 793 794 795 797 798 798 799 799 799 799 798 798 799 801 802 803 804 805 806 807 808 809 809 809 809 809 809 809 810 810 811 811 811 811 811 810 810 810
790 790 790 791 793 794 795 796 798 798 798 799 799 799 799 798 798 799 801 802 803 804 806 806 808 808 808 809 809 808 809 809 809 810 810 810 810 810 810 810 810 810
789 789 790 790 791 793 794 796 796 796 797 798 798 799 799 798 798 798 800 801 802 804 805 806 807 808 808 808 808 808 808 808 809 809 810 810 810 810 810 810 810 809
787 788 788 789 789 790 792 794 795 795 795 796 797 797 798 797 797 798 798 799 801 803 804 805 806 807 807 807 808 808 808 808 808 808 809 809 809 809 809 809 809 809
786 786 787 787 787 788 789 791 793 794 795 795 796 796 796 797 797 797 797 798 799 801 803 804 805 805 806 807 807 807 807 808 807 808 808 809 809 809 809 809 809 809
785 785 785 786 787 787 788 789 791 793 794 794 794 794 795 796 796 796 797 797 798 800 801 803 804 804 805 806 806 807 807 807 807 807 808 808 809 808 808 808 808 808
784 784 784 784 785 786 787 788 788 790 791 792 793 793 793 795 795 796 796 796 797 798 800 801 803 804 804 805 805 805 806 806 806 806 807 808 808 808 807 807 807 808
782 782 782 783 783 783 784 785 786 788 789 789 790 791 792 793 794 795 795 795 796 797 799 801 802 802 803 803 804 804 804 804 804 805 806 807 807 807 807 807 807 807
780 780 780 781 781 781 782 782 783 785 786 787 788 788 790 791 792 793 794 794 795 796 799 800 800 801 802 802 803 803 803 802 803 805 806 806 807 806 806 806 806 807
778 778 778 778 778 779 779 779 780 782 783 784 785 786 788 789 790 791 792 793 794 796 798 798 798 799 800 801 802 802 801 801 802 803 805 806 806 806 806 805 805 806
775 775 775 775 776 776 777 777 778 778 779 781 782 783 785 786 788 789 790 792 793 795 796 796 796 797 799 800 800 800 799 800 801 802 804 805 805 805 805 805 805 806
775 774 774 773 773 774 775 775 775 775 776 778 779 780 781 783 786 788 789 791 791 793 795 794 794 796 797 798 799 798 798 798 800 801 803 804 804 804 804 804 805 805
776 775 775 774 773 773 773 773 773 773 773 774 776 777 778 779 782 785 788 789 789 791 793 792 793 795 796 797 797 796 796 797 799 800 801 802 803 803 803 804 804 805
775 774 775 775 774 772 771 770 770 771 771 772 773 775 776 777 779 782 785 786 787 788 790 790 791 794 795 796 795 795 795 796 798 799 800 801 801 801 802 803 803 804
774 774 774 775 774 771 769 769 769 768 769 770 771 772 774 775 777 779 781 783 784 786 788 788 789 791 793 794 794 793 794 796 797 798 798 799 799 800 800 801 802 802
773 773 774 774 773 771 768 767 768 767 767 768 769 770 772 774 775 777 779 781 783 785 786 786 787 789 791 792 792 792 793 795 796 797 797 797 797 797 798 798 799 800
772 772 772 771 772 772 770 768 767 767 767 767 768 769 770 772 773 775 777 779 781 783 784 784 784 786 788 789 790 790 792 793 795 795 796 796 795 795 795 796 796 797
771 771 770 769 769 770 770 769 767 766 766 766 767 768 769 770 772 773 775 776 777 779 781 782 782 783 785 787 787 789 790 792 793 794 794 794 794 793 793 793 794 795
Wind_Speed
14 13 14 15 14 15 16 16 16 15 15 14 13 12 11 11 10 10 9 8 8 7 7 5 4 3 3 3 3 6 6 5 6 6 7 6 6 7 8 8 8 8
13 12 13 14 14 15 16 16 16 16 15 15 14 13 12 12 11 10 10 9 9 8 7 6 4 3 3 2 3 5 5 5 6 6 6 6 7 8 8 8 8 8
13 12 13 14 15 15 16 16 16 16 16 15 15 14 13 12 11 11 10 9 9 9 8 6 5 3 2 2 3 4 5 5 6 6 6 6 7 7 7 8 8 8
15 14 13 15 15 15 16 16 17 17 16 16 16 16 14 13 12 11 10 10 9 9 8 7 5 3 2 1 1 3 4 4 5 5 5 5 7 7 7 7 7 7
18 16 15 16 17 16 16 17 17 17 17 17 17 16 15 14 13 12 11 10 9 9 8 7 6 4 2 1 1 3 3 3 4 5 5 5 6 5 5 6 6 6
18 20 19 19 19 18 18 18 18 17 17 18 17 16 16 15 14 12 11 10 9 9 8 7 6 4 3 2 1 2 2 3 4 4 4 5 5 4 5 6 6 6
17 18 19 20 20 19 19 18 18 17 17 18 17 16 16 15 14 13 11 11 10 9 8 7 6 5 4 3 1 2 3 3 3 3 3 4 4 4 5 5 5 6
13 15 17 19 17 17 19 18 17 17 17 17 17 16 16 15 14 13 12 11 10 9 8 7 6 5 4 3 2 2 2 2 2 2 3 4 4 4 5 5 4 5
11 13 13 15 14 14 17 17 16 17 17 16 17 16 16 15 14 13 12 11 10 10 9 8 6 5 4 3 2 2 1 2 3 3 3 4 4 4 5 5 5 5
12 11 9 11 12 12 16 17 17 17 17 16 16 16 15 15 14 13 12 11 10 10 9 8 7 6 5 4 4 3 2 2 2 3 3 4 5 5 6 6 6 6
15 12 10 12 13 10 12 16 17 16 17 17 16 16 15 14 14 13 12 11 10 10 9 9 8 7 6 4 4 3 3 3 2 3 3 4 5 5 6 7 7 7
16 16 15 18 19 13 11 13 13 12 14 15 15 15 15 14 12 13 13 12 11 10 9 9 9 8 6 5 4 3 3 3 3 3 3 4 5 6 6 7 7 7
14 18 20 22 21 17 15 13 11 12 13 13 12 11 13 15 12 11 12 12 11 11 11 9 8 7 6 5 4 4 4 3 2 3 4 5 5 6 6 6 6 6
14 17 21 23 21 21 21 19 17 15 15 16 15 12 11 14 14 12 12 13 12 11 12 10 8 7 7 7 5 4 4 3 3 4 5 5 6 6 6 6 7 6
14 16 20 23 23 24 26 26 24 20 18 18 19 17 14 14 15 15 15 16 14 10 10 11 10 8 8 9 7 5 4 3 3 4 4 6 7 7 6 6 7 6
14 15 18 21 23 25 25 25 24 22 19 18 18 18 18 16 16 17 16 16 16 12 11 12 12 12 11 11 10 7 6 5 4 3 5 7 7 7 7 6 6 7
14 16 17 19 22 24 24 24 24 21 19 19 18 19 19 18 18 17 14 12 14 13 13 13 14 14 15 13 11 8 6 6 6 4 5 7 7 7 7 6 6 7
14 15 18 20 21 22 24 25 24 22 20 19 19 21 21 19 19 18 14 12 13 13 14 16 16 15 15 14 12 8 5 5 6 6 5 7 8 8 7 6 6 6
14 14 16 19 21 22 22 23 23 23 24 22 21 21 22 21 20 19 16 15 16 15 14 16 18 17 16 15 12 8 4 4 6 6 6 8 8 7 7 6 6 6
11 12 13 14 16 18 20 21 22 23 25 26 23 22 23 24 22 21 19 18 19 17 15 15 17 17 16 15 12 7 4 4 5 7 7 8 8 7 6 6 6 7
16 9 9 9 10 12 14 17 20 21 23 24 23 23 24 25 25 23 22 20 19 18 16 15 15 16 16 16 12 7 5 4 5 7 8 8 7 7 6 7 7 7
17 11 10 10 9 9 10 14 17 18 19 19 21 23 24 25 25 24 24 23 21 19 17 15 14 16 17 16 12 7 6 6 6 7 9 9 8 7 6 7 8 8
16 13 11 12 13 11 10 11 12 14 16 18 19 21 22 25 26 25 26 26 24 21 18 15 14 15 17 16 12 9 7 7 7 8 9 10 10 8 7 8 9 9
14 12 11 14 15 12 10 10 9 10 13 17 19 20 21 24 26 24 22 23 24 22 19 17 16 16 17 16 13 10 9 8 8 9 11 12 11 9 9 10 11 11
15 14 12 15 16 13 10 11 10 10 12 15 17 19 21 23 24 24 22 22 22 21 20 19 18 17 18 17 15 12 11 11 11 11 12 14 12 10 11 13 13 13
17 19 16 12 12 14 14 11 10 11 13 14 15 16 19 21 23 24 25 25 24 21 19 19 19 18 17 17 16 14 12 12 13 13 12 12 11 11 13 15 15 16
Wind_Direction
217 211 208 207 203 198 195 188 184 182 179 179 179 175 173 168 165 164 161 155 148 141 136 127 110 80 58 34 15 14 6 354 351 342 331 330 328 323 317 310 309 307
228 223 216 214 212 205 196 191 187 184 181 180 178 174 171 168 167 166 161 159 154 147 142 137 127 107 68 34 9 7 0 346 344 336 329 333 329 322 317 314 314 312
246 239 227 220 219 210 197 192 191 188 183 178 175 173 171 169 169 169 165 163 161 155 149 146 143 133 100 50 10 356 348 339 338 334 330 330 325 318 311 314 320 320
234 238 234 227 224 214 200 194 193 189 184 178 175 173 170 170 172 172 170 167 166 162 157 157 156 152 146 99 26 347 338 334 329 329 331 325 318 313 309 313 318 318
220 221 227 230 227 216 203 199 197 191 185 180 175 173 171 171 173 174 174 174 173 172 169 167 167 168 173 162 9 338 331 328 325 326 325 319 314 313 317 322 321 315
219 212 213 222 225 215 204 202 200 194 188 182 176 175 173 173 174 175 178 181 181 182 180 177 177 182 192 203 295 332 329 316 317 319 314 313 322 331 330 321 314 311
226 218 216 221 223 213 205 205 203 198 191 183 179 177 176 175 177 180 182 185 188 190 188 186 188 194 197 205 265 320 317 309 307 310 315 322 329 330 319 306 303 306
228 233 228 225 226 215 207 208 207 201 193 186 182 180 179 179 181 184 186 190 193 194 194 195 198 199 196 205 262 295 298 304 297 295 308 315 314 309 305 309 315 316
228 245 233 223 233 226 212 213 215 207 197 190 188 185 184 183 184 186 188 194 198 198 199 199 199 204 210 226 255 261 282 295 287 288 294 298 303 306 308 314 319 315
235 249 231 222 243 241 219 217 222 214 203 197 196 195 191 187 186 188 188 197 204 203 203 204 205 214 220 234 249 245 252 268 269 285 294 300 308 312 311 311 312 308
229 232 220 215 228 239 228 225 229 219 206 205 205 202 199 194 192 192 190 197 208 210 210 207 208 217 220 230 251 243 230 232 245 272 287 298 302 302 305 306 307 308
229 226 216 209 215 226 224 225 238 233 218 218 217 211 209 206 204 205 202 199 203 213 219 213 206 212 217 223 241 241 228 231 241 261 276 286 292 292 297 304 307 310
236 232 221 214 219 225 218 218 237 244 238 237 232 224 221 217 217 222 215 204 202 210 218 215 202 200 209 218 227 228 221 225 239 263 276 280 285 287 290 298 301 298
235 234 228 224 226 225 223 230 243 248 244 241 237 233 230 223 221 229 224 211 210 210 208 206 202 204 216 217 212 210 208 223 253 261 269 275 279 285 287 286 286 285
236 235 231 229 229 226 225 231 241 249 248 242 237 234 237 232 225 229 227 212 207 212 205 203 206 211 213 201 191 195 198 202 245 258 263 273 276 278 282 283 285 285
238 239 238 234 231 229 228 229 235 243 244 239 237 235 237 234 225 229 230 208 198 209 213 208 209 212 212 208 206 218 222 212 225 250 263 271 273 272 276 278 280 284
239 237 234 232 231 229 230 231 233 236 240 240 239 236 234 231 225 226 229 206 192 205 214 209 211 215 219 222 227 239 242 227 224 236 256 265 266 266 270 269 268 275
242 244 237 231 230 229 232 236 235 234 238 242 241 235 231 228 222 217 219 211 201 211 219 213 214 222 225 227 234 245 253 234 226 228 246 259 259 258 261 267 269 270
240 239 241 237 235 235 235 236 234 231 234 238 240 235 228 224 218 208 209 212 209 217 226 217 214 223 228 229 236 248 263 247 232 228 236 253 260 261 263 266 263 259
276 243 242 242 240 242 241 238 235 231 232 234 237 233 226 220 215 210 213 216 213 219 230 224 218 223 228 229 234 248 265 253 237 229 228 244 259 261 264 263 255 251
327 304 280 268 249 245 244 240 237 233 231 232 233 230 223 215 211 213 218 218 212 216 225 226 223 227 230 229 231 244 259 252 240 228 221 231 247 249 250 251 246 245
330 324 307 287 261 244 236 232 233 235 236 233 228 224 218 211 210 215 218 215 210 212 221 225 223 224 226 226 229 243 251 241 228 216 212 223 235 235 239 245 242 240
325 323 311 287 260 237 226 230 236 241 239 232 221 215 211 210 212 216 216 212 208 209 218 222 218 216 220 224 232 243 244 232 217 209 213 224 227 223 229 236 235 236
331 323 312 304 287 255 226 224 234 238 234 227 219 211 209 210 213 214 213 210 211 215 219 220 218 218 221 224 232 241 238 225 210 209 224 231 225 220 225 228 229 229
336 325 316 325 322 301 261 229 221 225 224 220 217 213 212 214 214 213 210 209 212 217 220 218 218 221 221 222 230 237 233 224 212 214 234 240 228 219 225 227 227 226
338 331 325 330 330 311 288 257 227 222 221 214 213 216 217 217 216 213 211 210 211 213 217 220 220 220 218 220 227 232 231 225 213 212 234 249 237 223 226 225 221 219